• MPC Preparation (Info)

  • MPEC 2016-O46 : 2014 GU53

    The following Minor Planet Electronic Circular may be linked-to from your own Web pages, but must not otherwise be redistributed electronically.

    A form allowing access to any MPEC is at the bottom of this page.


    Read MPEC 2016-O45 Read MPEC 2016-O47


    M.P.E.C. 2016-O46                                Issued 2016 July 16, 21:17 UT
    
         The Minor Planet Electronic Circulars contain information on unusual
             minor planets and routine data on comets.  They are published
        on behalf of Division F of the International Astronomical Union by the
              Minor Planet Center, Smithsonian Astrophysical Observatory,
                              Cambridge, MA 02138, U.S.A.
    
                 Prepared using the Tamkin Foundation Computer Network
    
                                  MPC@CFA.HARVARD.EDU
                URL https://www.minorplanetcenter.net/    ISSN 1523-6714
    
                                       2014 GU53
    
    Observations:
         K14G53U  C2012 04 24.53873 15 31 14.720+00 44 35.41         21.8 gLEO046F51
         K14G53U  C2012 04 24.54901 15 31 14.674+00 44 35.68         22.0 gLEO046F51
         K14G53U  C2012 04 24.55950 15 31 14.612+00 44 36.10         21.8 rLEO046F51
         K14G53U  C2012 04 24.56928 15 31 14.573+00 44 36.49         21.5 rLEO046F51
         K14G53U* C2014 04 08.50111 15 44 51.966+00 34 03.25         21.7 wLEO046F51
         K14G53U  C2014 04 08.51376 15 44 51.920+00 34 03.65         21.6 wLEO046F51
         K14G53U  C2014 04 08.52646 15 44 51.873+00 34 04.21         21.9 wLEO046F51
         K14G53U  C2014 04 08.53926 15 44 51.830+00 34 04.55         21.6 wLEO046F51
         K14G53U  C2014 04 24.50339 15 43 47.987+00 43 00.29         22.0 wLEO046F51
         K14G53U  C2014 04 24.51598 15 43 47.905+00 43 00.47         21.9 wLEO046F51
         K14G53U  C2014 04 24.52851 15 43 47.822+00 43 01.15         22.0 wLEO046F51
         K14G53U  C2014 04 24.54109 15 43 47.795+00 43 01.51         22.0 wLEO046F51
         K14G53U  C2014 05 04.40340 15 43 02.385+00 47 49.15         21.8 wLEO046F51
         K14G53U  C2014 05 04.41539 15 43 02.328+00 47 49.38         21.6 wLEO046F51
         K14G53U  C2014 05 04.42741 15 43 02.272+00 47 49.69         21.7 wLEO046F51
         K14G53U  C2014 05 04.43945 15 43 02.210+00 47 50.03         21.7 wLEO046F51
         K14G53U  C2014 05 28.33264 15 41 05.026+00 56 11.89         21.6 wLEO046F51
         K14G53U  C2014 05 28.34486 15 41 04.964+00 56 12.41         21.7 wLEO046F51
         K14G53U  C2014 05 28.35701 15 41 04.905+00 56 12.41         21.6 wLEO046F51
         K14G53U  C2014 05 28.36917 15 41 04.842+00 56 12.50         21.6 wLEO046F51
         K14G53U  C2014 07 01.36799 15 38 40.000+00 58 19.78         21.8 wLEO046F51
         K14G53U  C2014 07 01.38000 15 38 39.972+00 58 19.68         21.7 wLEO046F51
         K14G53U  C2014 07 01.39200 15 38 39.916+00 58 19.73         21.7 wLEO046F51
         K14G53U  C2014 07 01.40401 15 38 39.875+00 58 19.49         21.7 wLEO046F51
         K14G53U  C2015 02 17.59068 15 52 11.376+00 03 24.03         21.8 wLEO046F51
         K14G53U  C2015 02 17.60298 15 52 11.386+00 03 24.33         21.8 wLEO046F51
         K14G53U  C2015 02 17.61539 15 52 11.403+00 03 24.86         21.7 wLEO046F51
         K14G53U  C2015 02 17.62777 15 52 11.419+00 03 25.18         21.5 wLEO046F51
         K14G53U  C2015 02 18.58946 15 52 12.608+00 03 55.12         21.9 wLEO046F51
         K14G53U  C2015 02 18.60178 15 52 12.619+00 03 55.54         22.1 wLEO046F51
         K14G53U  C2015 02 18.61414 15 52 12.632+00 03 56.19         22.2 wLEO046F51
         K14G53U  C2015 02 18.62655 15 52 12.645+00 03 56.59         22.0 wLEO046F51
         K14G53U  C2015 03 25.54629 15 51 51.651+00 24 34.88         21.7 wLEO046F51
         K14G53U  C2015 03 25.55866 15 51 51.628+00 24 35.43         21.7 wLEO046F51
         K14G53U  C2015 03 25.57109 15 51 51.602+00 24 35.76         21.7 wLEO046F51
         K14G53U  C2015 03 25.60291 15 51 51.515+00 24 37.03         21.7 wLEO046F51
         K14G53U  C2015 03 25.61443 15 51 51.492+00 24 37.57         21.9 wLEO046F51
         K14G53U  C2015 03 27.53493 15 51 46.887+00 25 49.19         21.9 wLEO046F51
         K14G53U  C2015 03 27.54707 15 51 46.893+00 25 49.30         21.6 wLEO046F51
         K14G53U  C2015 03 27.55928 15 51 46.872+00 25 49.88         21.7 wLEO046F51
         K14G53U  C2015 03 27.57135 15 51 46.864+00 25 50.26         22.2 wLEO046F51
         K14G53U  C2015 04 04.47264 15 51 24.789+00 30 41.36         21.4 wLEO046F51
         K14G53U  C2015 04 04.48461 15 51 24.755+00 30 41.95         21.6 wLEO046F51
         K14G53U  C2015 04 04.49662 15 51 24.714+00 30 42.48         21.5 wLEO046F51
         K14G53U  C2015 04 12.40544 15 50 57.851+00 35 24.70         21.7 wLEO046F51
         K14G53U  C2015 04 12.44485 15 50 57.725+00 35 26.20         21.8 wLEO046F51
         K14G53U  C2015 04 12.45703 15 50 57.667+00 35 26.65         21.8 wLEO046F51
         K14G53U  C2015 04 12.46923 15 50 57.616+00 35 27.09         21.6 wLEO046F51
         K14G53U  C2015 04 13.55193 15 50 53.593+00 36 04.55         21.1 iLEO046F51
         K14G53U  C2015 04 13.56485 15 50 53.544+00 36 05.19         21.3 iLEO046F51
         K14G53U  C2015 04 13.57773 15 50 53.488+00 36 05.55         21.1 iLEO046F51
         K14G53U  C2015 04 13.59067 15 50 53.443+00 36 06.02         21.1 iLEO046F51
         K14G53U  C2015 05 11.44967 15 48 49.911+00 49 58.86         21.6 rLEO046F51
         K14G53U  C2015 05 11.46236 15 48 49.842+00 49 59.30         21.6 rLEO046F51
         K14G53U  C2015 05 11.47528 15 48 49.783+00 49 59.44         21.5 rLEO046F51
         K14G53U  C2015 05 11.48817 15 48 49.724+00 49 59.53         21.7 rLEO046F51
         K14G53U  C2015 05 13.39036 15 48 40.373+00 50 44.13         21.5 wLEO046F51
         K14G53U  C2015 05 13.40296 15 48 40.312+00 50 44.58         21.4 wLEO046F51
         K14G53U  C2015 05 13.41559 15 48 40.251+00 50 45.01         21.6 wLEO046F51
         K14G53U  C2015 05 13.42826 15 48 40.186+00 50 45.27         21.7 wLEO046F51
         K14G53U  C2015 06 06.43705 15 46 42.204+00 57 14.22         21.2 iLEO046F51
         K14G53U  C2015 06 06.44965 15 46 42.159+00 57 14.52         21.3 iLEO046F51
         K14G53U  C2015 06 06.46222 15 46 42.096+00 57 14.49         21.0 iLEO046F51
    
    Observer details:
    F51 Pan-STARRS 1, Haleakala.  Observers B. Gibson, T. Goggia, N. Primak,
        A. Schultz, M. Willman.  Measurers K. Chambers, S. Chastel, Y.-T. Chen,
        L. Denneau, H. Flewelling, M. Holman, M. Huber, R. Jedicke, M. Lackner,
        E. Lilly, H.-W. Lin, E. Magnier, M. Micheli, M. Payne, P. Veres,
        R. Wainscoat, C. Waters, R. Weryk.  1.8-m Ritchey-Chretien + CCD.
    
    Orbital elements:
    2014 GU53
    Epoch 2016 July 31.0 TT = JDT 2457600.5                 MPC
    M 319.34959              (2000.0)            P               Q
    n   0.00341232     Peri.  116.09144     +0.41690036     +0.90888576
    a  43.6954143      Node   178.41847     -0.90894196     +0.41692256
    e   0.1717134      Incl.   23.46418     -0.00431333     -0.01011181
    P 289              H    5.6           G   0.15           U   2
    Residuals in seconds of arc
    120424 F51  0.1+  0.1-    140701 F51  0.1+  0.0     150404 F51  0.1+  0.0
    120424 F51  0.1+  0.1-    140701 F51  0.1-  0.1+    150404 F51  0.0   0.1+
    120424 F51  0.1-  0.0     140701 F51  0.1-  0.1-    150412 F51  0.2-  0.1-
    120424 F51  0.0   0.0     150217 F51  0.1+  0.0     150412 F51  0.2+  0.0
    140408 F51  0.2+  0.1+    150217 F51  0.0   0.1-    150412 F51  0.0   0.0
    140408 F51  0.2+  0.0     150217 F51  0.1+  0.1+    150412 F51  0.1-  0.0
    140408 F51  0.1+  0.1+    150217 F51  0.1+  0.0     150413 F51  0.1-  0.2-
    140408 F51  0.2+  0.0     150218 F51  0.1+  0.1-    150413 F51  0.0   0.0
    140424 F51  0.1+  0.1+    150218 F51  0.0   0.1-    150413 F51  0.1-  0.1-
    140424 F51  0.2-  0.1-    150218 F51  0.0   0.2+    150413 F51  0.1-  0.0
    140424 F51  0.6-  0.2+    150218 F51  0.0   0.2+    150511 F51  0.0   0.0
    140424 F51  0.2-  0.1+    150325 F51  0.1-  0.0     150511 F51  0.1-  0.2+
    140504 F51  0.1+  0.1+    150325 F51  0.0   0.1+    150511 F51  0.0   0.0
    140504 F51  0.1+  0.0     150325 F51  0.1+  0.1-    150511 F51  0.1+  0.2-
    140504 F51  0.1+  0.0     150325 F51  0.1-  0.0     150513 F51  0.0   0.3-
    140504 F51  0.1+  0.0     150325 F51  0.0   0.1+    150513 F51  0.0   0.1-
    140528 F51  0.0   0.1-    150327 F51  0.7-  0.2+    150513 F51  0.0   0.0
    140528 F51  0.0   0.3+    150327 F51  0.1-  0.1-    150513 F51  0.0   0.0
    140528 F51  0.0   0.1+    150327 F51  0.1+  0.0     150606 F51  0.1-  0.1-
    140528 F51  0.0   0.0     150327 F51  0.4+  0.1-    150606 F51  0.2+  0.1+
    140701 F51  0.1-  0.0     150404 F51  0.0   0.2-    150606 F51  0.1+  0.1-
    
    Ephemeris:
    2014 GU53                a,e,i = 43.70, 0.17, 23                 q = 36.192
    Date    TT    R. A. (2000) Decl.     Delta      r     Elong.  Phase     V
    2016 06 16    15 52 17.3 +00 57 31  37.8556 38.6876   144.5     0.9    21.6
    ...
    2016 07 01    15 51 16.9 +00 56 57  37.9905 38.6820   132.3     1.1    21.6
    ...
    2016 07 09    15 50 50.4 +00 55 41  38.0811 38.6790   125.4     1.2    21.6
    ...
    2016 07 15    15 50 33.7 +00 54 19  38.1562 38.6768   120.2     1.3    21.6
    2016 07 16    15 50 31.2 +00 54 03  38.1692 38.6764   119.3     1.3    21.6
    2016 07 17    15 50 28.8 +00 53 47  38.1824 38.6760   118.4     1.3    21.6
    ...
    2016 07 23    15 50 16.1 +00 51 58  38.2642 38.6738   113.1     1.4    21.6
    ...
    2016 07 31    15 50 04.2 +00 49 03  38.3795 38.6708   106.0     1.4    21.7
    ...
    2016 08 15    15 49 58.3 +00 42 17  38.6076 38.6651    92.5     1.5    21.7
    
    A. U. Tomatic                (C) Copyright 2016 MPC           M.P.E.C. 2016-O46
    

    Read MPEC 2016-O45 Read MPEC 2016-O47


    MPEC number:

    Enter an MPEC number in one of the following forms:

    • 1997-B01 (the full form)
    • J97B01 (the packed version of the full form)
    • B01 (the abbreviated form)